This demonstration page uses our WeatherBlox Daily Observations layout. Learn more.

Left ArrowRight Arrow

Hourly Observations for January 12, 2017

Temp ( °F °C ) Dew Point ( °F °C ) Humidity (%) Winds ( mph kmh ) Pressure ( in mb ) Visibility ( mi km ) Precip ( " mm )
12:52 am 00:52 Cloudy 65 18.3 56 13.3 73 73 S 12 19 29.73 1007 10 16 0.00 0.00
1:52 am 01:52 Cloudy 67 19.4 56 13.3 68 68 SSW 18 30 29.74 1007 10 16 0.00 0.00
2:52 am 02:52 Cloudy 67 19.4 56 13.3 68 68 SW 17 28 29.78 1008 10 16 0.00 0.00
3:47 am 03:47 Cloudy 57 14 48 9 72 72 WNW 12 19 29.83 1010 10 16 0.00 0.00
3:52 am 03:52 Cloudy 56 13.3 46 7.8 70 70 WNW 9 15 29.81 1010 10 16 0.00 0.00
4:04 am 04:04 Cloudy 48 9 39 4 71 71 NW 13 20 29.85 1011 10 16 0.00 0.00
4:12 am 04:12 Cloudy 46 8 37 3 71 71 NW 17 28 29.91 1013 10 16 0.00 0.00
4:52 am 04:52 Mostly Clear 39 3.9 33 0.6 79 79 NNW 16 26 29.89 1012 10 16 0.00 0.00
5:48 am 05:48 Cloudy 36 2 28 -2 75 75 NW 14 22 30.03 1017 9 14 0.00 0.00
5:52 am 05:52 Cloudy 35 1.7 29 -1.7 78 78 NNW 14 22 29.96 1015 9 14 0.00 0.00
6:20 am 06:20 Cloudy 34 1 28 -2 81 81 NW 12 19 30.03 1017 9 14 0.00 0.00
6:52 am 06:52 Cloudy 34 1.1 28 -2.2 79 79 NW 8 13 30.00 1016 8 13 0.00 0.00
7:48 am 07:48 Cloudy with Haze 34 1 27 -3 75 75 NW 14 22 30.09 1019 6 10 0.00 0.00
7:52 am 07:52 Cloudy with Haze 32 0 27 -2.8 82 82 NNW 12 19 30.05 1018 6 10 0.00 0.00
8:52 am 08:52 Cloudy with Haze 32 0 26 -3.3 79 79 NNW 13 20 30.11 1020 4 6 0.00 0.00
9:03 am 09:03 Cloudy with Haze 32 0 27 -3 80 80 NNW 9 15 30.18 1022 4 6 0.00 0.00
9:52 am 09:52 Cloudy with Mist and Fog 31 -0.6 27 -2.8 85 85 NNW 10 17 30.16 1021 4 6 0.00 0.00
10:52 am 10:52 Cloudy with Haze 32 0 27 -2.8 82 82 NNW 12 19 30.19 1022 4 6 0.00 0.00
11:52 am 11:52 Cloudy 31 -0.6 26 -3.3 82 82 NNW 13 20 30.20 1023 7 11 0.00 0.00
12:52 pm 12:52 Cloudy 30 -1.1 25 -3.9 82 82 NNW 9 15 30.22 1023 7 11 0.00 0.00
1:45 pm 13:45 Cloudy 31 -0.6 25 -3.9 79 79 N 7 11 30.30 1026 9 14 0.00 0.00
1:52 pm 13:52 Cloudy 31 -0.6 25 -3.9 79 79 N 10 17 30.23 1024 9 14 0.00 0.00
2:52 pm 14:52 Cloudy 31 -0.6 24 -4.4 76 76 N 15 24 30.25 1024 10 16 0.00 0.00
3:52 pm 15:52 Cloudy 30 -1.1 23 -5 75 75 N 14 22 30.30 1026 10 16 0.00 0.00
4:52 pm 16:52 Mostly Cloudy 28 -2.2 22 -5.6 78 78 N 15 24 30.34 1027 10 16 0.00 0.00
5:06 pm 17:06 Partly Cloudy 28 -2 21 -6 74 74 N 9 15 30.39 1029 10 16 0.00 0.00
5:52 pm 17:52 Clear 28 -2.2 21 -6.1 75 75 NNE 8 13 30.37 1029 10 16 0.00 0.00
6:52 pm 18:52 Mostly Clear 28 -2.2 21 -6.1 75 75 NNE 12 19 30.37 1029 10 16 0.00 0.00
7:52 pm 19:52 Clear 28 -2.2 21 -6.1 75 75 NNE 9 15 30.40 1030 10 16 0.00 0.00
8:52 pm 20:52 Clear 29 -1.7 21 -6.1 72 72 NE 12 19 30.42 1030 10 16 0.00 0.00
9:52 pm 21:52 Cloudy 28 -2 19 -7 69 69 NE 12 19 30.45 1031 10 16 0.00 0.00
11:52 pm 23:52 Mostly Cloudy 29 -1.7 20 -6.7 69 69 ENE 10 17 30.43 1031 10 16 0.00 0.00

Powered by AerisWeather